STARLINK-31858, 59658

Orbit data source: Space-Track

STARLINK-31858, 59658 is a payload satellite owned by SpaceX/Seattle (US) in LEO that was launched on Mon, 06 May 2024 UTC via an FALCON 9 launch vehicle from the Air Force Eastern Test Range (AFETR). Payload-class satellites include a variety of spacecraft equipped with specific instruments for various scientific and technological missions. These include communications satellites like Starlink; space stations such as the ISS; scientific satellites like the Hubble; Earth observation satellites from companies like Planet Labs, Umbra, and HawkEye 360; GPS; miniature CubeSats for education and research; and military/defense satellites.

Loading next visibility...
Identifier
59658, 2024-084E
Orbit
LEO
Country
Flag of USUS
Related business
Manufacturer
SpaceX/Seattle
Mission
Operational Commercial Communications
Bus & Motor
STARLINK V2M, Unknown motor
Mass
730 kg wet, ~700 kg dry
Launch date (UTC)
2024-05-06 (1 year ago)
Launch vehicle
FALCON 9
Launch site
Air Force Eastern Test Range (AFETR)
Object type
Payload
Rocket body
Debris
Shape & HBR
Box + 2 Pan, 17.7 m
Radar Cross Section
33.884 m², Large (>1 m²)

Expand to show TLE details & history
Last TLE update: 6 hours ago

TLE from 6 hours ago
0 STARLINK-31858
1 59658U 24084E   25288.64522229  .00007433  00000-0  27938-3 0  9997
2 59658  43.0036 140.6632 0001492 268.6571  91.4109 15.27579967 82196
Epoch: 2025-10-15T15:29Z
TLE epoch observation values (Epoch: 2025-10-15T15:29:07.205Z)
Latitude
-0.00009°
Longitude
-116.03324°
Altitude
482.85 km
Speed
7.626 km/s
True Right ascension
09h 22m 39s
True Declination
0° 00' 00"
Sunlit
Object was in daylight at epoch
Visualization orbit readout
Latitude
Unknown
Longitude
Unknown
Altitude
Unknown
Speed
Unknown
Apparent Right ascension
Unknown
Apparent Declination
Unknown
Sunlit
N/A
Visualization observer readout
Local Sidereal Time
15:57:51
Azimuth
Unknown
Elevation
Unknown
Doppler factor
Unknown
Orbital elements
Apogee altitude
486.018 km
Perigee altitude
483.97 km
Semi-major axis
6,863.131 km
Eccentricity
0.00015
Inclination
43.0036°
RAAN
140.6632°
Arg. of periapsis
268.6571°
True anomaly
91.42799°
Mean anomaly
91.4109°
Eccentric anomaly
91.41945°
Mean motion
3.81733 °/min
Orbital period
94.31 mins
BSTAR
0.00027938
Loading maneuver chart data...
Computing Atmospheric mass density...
Loading historical data...
Loading historical data...
Loading historical data...
Loading historical data...
Loading historical data...
Loading historical data...
Loading historical data...

Documentation

Showing up to 5 results
|